| time (UTC) | temp F | wind direction | speed knots | gust knots | rain 1hr in | rain 24hr in | rain mn in | humidity % | barometer mb |
| 20260510075557 | 52 | 40 | 0.0 | 1.7 | 0.00 | 0.17 | 0.00 | 77 | 1011.8 |
| 20260510075057 | 52 | 40 | 0.0 | 1.7 | 0.00 | 0.17 | 0.00 | 77 | 1011.7 |
| 20260510074520 | 52 | 40 | 0.0 | 2.6 | 0.00 | 0.17 | 0.00 | 77 | 1011.7 |
| 20260510074057 | 52 | 42 | 0.0 | 2.6 | 0.00 | 0.17 | 0.00 | 77 | 1011.8 |
| 20260510073557 | 52 | 344 | 0.9 | 4.3 | 0.00 | 0.17 | 0.00 | 77 | 1011.9 |
| 20260510073001 | 52 | 321 | 2.6 | 4.3 | 0.00 | 0.17 | 0.00 | 77 | 1011.9 |
| 20260510072506 | 52 | 348 | 0.9 | 3.5 | 0.00 | 0.17 | 0.00 | 77 | 1011.8 |
| 20260510072013 | 52 | 328 | 0.0 | 2.6 | 0.00 | 0.17 | 0.00 | 77 | 1011.8 |
| 20260510071553 | 52 | 313 | 0.0 | 2.6 | 0.00 | 0.17 | 0.00 | 77 | 1011.8 |
| 20260510071056 | 52 | 313 | 0.0 | 3.5 | 0.00 | 0.17 | 0.00 | 77 | 1012.0 |
| 20260510070518 | 52 | 303 | 0.9 | 3.5 | 0.00 | 0.17 | 0.00 | 77 | 1011.9 |
| 20260510070106 | 52 | 138 | 0.9 | 2.6 | 0.00 | 0.17 | 0.00 | 77 | 1011.8 |
| 20260510065600 | 52 | 138 | 0.9 | 1.7 | 0.00 | 0.17 | 0.00 | 77 | 1011.5 |
| 20260510065009 | 52 | 138 | 0.9 | 1.7 | 0.00 | 0.17 | 0.00 | 77 | 1011.4 |
| 20260510064524 | 52 | 138 | 0.0 | 0.9 | 0.00 | 0.17 | 0.00 | 77 | 1011.4 |
| 20260510064012 | 52 | 138 | 0.0 | 0.9 | 0.00 | 0.17 | 0.00 | 77 | 1011.3 |
| 20260510063555 | 52 | 138 | 0.0 | 1.7 | 0.00 | 0.17 | 0.00 | 77 | 1011.3 |
| 20260510063058 | 52 | 138 | 0.0 | 1.7 | 0.00 | 0.17 | 0.00 | 77 | 1011.3 |
| 20260510062517 | 52 | 138 | 0.0 | 1.7 | 0.00 | 0.17 | 0.00 | 77 | 1011.3 |
| 20260510062054 | 52 | 138 | 0.0 | 2.6 | 0.00 | 0.17 | 0.00 | 76 | 1011.3 |
| 20260510061559 | 52 | 138 | 0.0 | 2.6 | 0.00 | 0.17 | 0.00 | 76 | 1011.3 |
| 20260510061002 | 52 | 138 | 0.0 | 0.0 | 0.00 | 0.17 | 0.00 | 76 | 1011.3 |
| 20260510060507 | 52 | 138 | 0.0 | 0.0 | 0.00 | 0.17 | 0.00 | 76 | 1011.4 |
| 20260510060052 | 52 | 138 | 0.0 | 0.0 | 0.00 | 0.17 | 0.00 | 76 | 1011.4 |
| 20260510055557 | 52 | 138 | 0.0 | 0.0 | 0.00 | 0.17 | 0.00 | 76 | 1011.3 |
| 20260510055059 | 52 | 138 | 0.0 | 0.0 | 0.00 | 0.17 | 0.00 | 76 | 1011.5 |
| 20260510054503 | 52 | 138 | 0.0 | 0.9 | 0.00 | 0.17 | 0.00 | 76 | 1011.4 |
| 20260510054008 | 52 | 138 | 0.0 | 0.9 | 0.00 | 0.17 | 0.00 | 76 | 1011.4 |
| 20260510053515 | 52 | 138 | 0.0 | 0.9 | 0.00 | 0.17 | 0.00 | 76 | 1011.5 |
| 20260510053054 | 52 | 138 | 0.0 | 0.9 | 0.00 | 0.17 | 0.00 | 76 | 1011.6 |
| 20260510052558 | 52 | 138 | 0.0 | 0.9 | 0.00 | 0.17 | 0.00 | 76 | 1011.8 |
| 20260510052018 | 52 | 138 | 0.0 | 0.9 | 0.00 | 0.17 | 0.00 | 76 | 1011.7 |
| 20260510051558 | 52 | 138 | 0.0 | 0.9 | 0.00 | 0.17 | 0.00 | 76 | 1011.7 |
| 20260510051103 | 52 | 138 | 0.0 | 1.7 | 0.00 | 0.17 | 0.00 | 75 | 1011.7 |
| 20260510050505 | 52 | 138 | 0.0 | 1.7 | 0.00 | 0.17 | 0.00 | 75 | 1011.8 |
| 20260510050014 | 52 | 138 | 0.0 | 3.5 | 0.00 | 0.17 | 0.00 | 75 | 1011.9 |
| 20260510045557 | 52 | 138 | 0.9 | 3.5 | 0.00 | 0.17 | 0.00 | 75 | 1011.9 |
| 20260510045056 | 52 | 138 | 0.0 | 2.6 | 0.00 | 0.17 | 0.00 | 75 | 1011.7 |
| 20260510044612 | 52 | 138 | 0.0 | 1.7 | 0.00 | 0.17 | 0.00 | 75 | 1011.8 |
| 20260510044003 | 52 | 138 | 0.0 | 1.7 | 0.00 | 0.17 | 0.00 | 75 | 1011.6 |
| 20260510043505 | 52 | 138 | 0.0 | 1.7 | 0.00 | 0.17 | 0.00 | 75 | 1011.7 |
| 20260510043011 | 52 | 138 | 0.0 | 1.7 | 0.01 | 0.17 | 0.00 | 75 | 1011.8 |
| 20260510042554 | 52 | 138 | 0.0 | 1.7 | 0.01 | 0.17 | 0.00 | 75 | 1011.8 |
| 20260510042056 | 52 | 138 | 0.0 | 0.0 | 0.01 | 0.17 | 0.00 | 75 | 1011.7 |
| 20260510041600 | 52 | 138 | 0.0 | 0.0 | 0.01 | 0.17 | 0.00 | 75 | 1011.8 |
| 20260510041006 | 52 | 138 | 0.0 | 0.0 | 0.01 | 0.17 | 0.00 | 75 | 1011.7 |
| 20260510040512 | 52 | 138 | 0.0 | 0.0 | 0.01 | 0.17 | 0.00 | 75 | 1011.5 |
| 20260510040054 | 52 | 138 | 0.0 | 0.0 | 0.01 | 0.17 | 0.00 | 74 | 1011.5 |
| 20260510035556 | 52 | 138 | 0.0 | 1.7 | 0.01 | 0.17 | 0.17 | 74 | 1011.4 |
| 20260510035022 | 52 | 138 | 0.0 | 2.6 | 0.01 | 0.17 | 0.17 | 74 | 1011.4 |
| 20260510034615 | 52 | 138 | 0.0 | 2.6 | 0.01 | 0.17 | 0.17 | 74 | 1011.3 |
| 20260510034059 | 52 | 138 | 0.0 | 2.6 | 0.01 | 0.17 | 0.17 | 74 | 1011.2 |
| 20260510033501 | 52 | 138 | 0.0 | 3.5 | 0.01 | 0.17 | 0.17 | 74 | 1011.2 |
| 20260510033007 | 52 | 138 | 1.7 | 3.5 | 0.00 | 0.16 | 0.16 | 74 | 1011.2 |
| 20260510032508 | 52 | 67 | 0.0 | 2.6 | 0.00 | 0.16 | 0.16 | 74 | 1011.2 |
| 20260510032055 | 52 | 139 | 0.9 | 2.6 | 0.00 | 0.16 | 0.16 | 74 | 1011.2 |
| 20260510031523 | 53 | 80 | 0.9 | 1.7 | 0.00 | 0.16 | 0.16 | 73 | 1011.3 |
| 20260510031056 | 52 | 74 | 0.0 | 2.6 | 0.00 | 0.16 | 0.16 | 73 | 1011.3 |
| 20260510030519 | 53 | 71 | 0.0 | 2.6 | 0.00 | 0.16 | 0.16 | 73 | 1011.3 |
| 20260510030058 | 53 | 75 | 0.0 | 2.6 | 0.00 | 0.16 | 0.16 | 73 | 1011.4 |
| 20260510025559 | 53 | 124 | 0.9 | 2.6 | 0.00 | 0.16 | 0.16 | 73 | 1011.4 |
| 20260510025001 | 53 | 110 | 0.0 | 1.7 | 0.00 | 0.16 | 0.16 | 73 | 1011.3 |
| 20260510024506 | 53 | 110 | 0.9 | 1.7 | 0.00 | 0.16 | 0.16 | 73 | 1011.2 |
| 20260510024008 | 53 | 110 | 0.0 | 0.9 | 0.00 | 0.16 | 0.16 | 73 | 1011.3 |
| 20260510023553 | 53 | 110 | 0.0 | 2.6 | 0.00 | 0.16 | 0.16 | 73 | 1011.3 |
| 20260510023056 | 53 | 110 | 0.0 | 2.6 | 0.00 | 0.16 | 0.16 | 73 | 1011.3 |
| 20260510022603 | 53 | 103 | 0.9 | 3.5 | 0.00 | 0.16 | 0.16 | 73 | 1011.3 |
| 20260510022002 | 53 | 76 | 0.9 | 3.5 | 0.00 | 0.16 | 0.16 | 72 | 1011.3 |
| 20260510021511 | 53 | 229 | 0.0 | 2.6 | 0.00 | 0.16 | 0.16 | 72 | 1011.4 |
| 20260510021054 | 53 | 119 | 0.0 | 1.7 | 0.00 | 0.16 | 0.16 | 72 | 1011.4 |
| 20260510020558 | 53 | 119 | 0.9 | 2.6 | 0.00 | 0.16 | 0.16 | 72 | 1011.4 |
| 20260510020101 | 53 | 101 | 0.0 | 3.5 | 0.00 | 0.16 | 0.16 | 72 | 1011.3 |
| 20260510015504 | 53 | 112 | 1.7 | 3.5 | 0.00 | 0.16 | 0.16 | 72 | 1011.3 |
| 20260510015007 | 53 | 90 | 1.7 | 4.3 | 0.00 | 0.16 | 0.16 | 72 | 1011.3 |
| 20260510014512 | 53 | 128 | 1.7 | 6.1 | 0.00 | 0.16 | 0.16 | 71 | 1011.3 |
| 20260510014054 | 53 | 96 | 0.9 | 5.2 | 0.00 | 0.16 | 0.16 | 71 | 1011.1 |
| 20260510013600 | 53 | 96 | 1.7 | 3.5 | 0.00 | 0.16 | 0.16 | 71 | 1011.2 |
| 20260510013130 | 53 | 97 | 0.9 | 3.5 | 0.00 | 0.16 | 0.16 | 71 | 1011.3 |
| 20260510012504 | 53 | 94 | 0.9 | 5.2 | 0.00 | 0.16 | 0.16 | 71 | 1011.2 |
| 20260510012009 | 53 | 135 | 1.7 | 5.2 | 0.00 | 0.16 | 0.16 | 71 | 1011.1 |
| 20260510011555 | 53 | 111 | 1.7 | 6.1 | 0.00 | 0.16 | 0.16 | 71 | 1011.2 |
| 20260510011056 | 53 | 114 | 0.9 | 4.3 | 0.00 | 0.16 | 0.16 | 70 | 1011.1 |
| 20260510010559 | 53 | 113 | 1.7 | 4.3 | 0.00 | 0.16 | 0.16 | 70 | 1011.1 |
| 20260510010004 | 53 | 64 | 0.0 | 1.7 | 0.00 | 0.16 | 0.16 | 70 | 1011.0 |
| 20260510005506 | 54 | 5 | 0.0 | 0.0 | 0.00 | 0.16 | 0.16 | 70 | 1011.0 |
| 20260510005013 | 54 | 5 | 0.0 | 0.0 | 0.00 | 0.16 | 0.16 | 70 | 1011.1 |
| 20260510004553 | 54 | 5 | 0.0 | 0.0 | 0.00 | 0.16 | 0.16 | 70 | 1011.1 |
| 20260510004055 | 54 | 5 | 0.0 | 0.0 | 0.00 | 0.16 | 0.16 | 70 | 1011.0 |
| 20260510003502 | 54 | 5 | 0.0 | 0.0 | 0.00 | 0.16 | 0.16 | 70 | 1011.0 |
| 20260510003005 | 55 | 5 | 0.0 | 0.0 | 0.00 | 0.16 | 0.16 | 70 | 1010.9 |
| 20260510002553 | 55 | 5 | 0.0 | 0.0 | 0.00 | 0.16 | 0.16 | 70 | 1010.9 |
| 20260510002056 | 55 | 5 | 0.0 | 0.0 | 0.00 | 0.16 | 0.16 | 70 | 1010.9 |
| 20260510001520 | 55 | 5 | 0.0 | 0.0 | 0.00 | 0.16 | 0.16 | 70 | 1010.7 |
| 20260510001056 | 55 | 5 | 0.0 | 0.0 | 0.00 | 0.16 | 0.16 | 70 | 1010.7 |
| 20260510000558 | 55 | 5 | 0.0 | 0.9 | 0.00 | 0.16 | 0.16 | 70 | 1010.7 |
| 20260510000002 | 56 | 5 | 0.0 | 0.9 | 0.01 | 0.16 | 0.16 | 71 | 1010.5 |
| 20260509235504 | 56 | 5 | 0.0 | 1.7 | 0.02 | 0.16 | 0.16 | 71 | 1010.5 |
| 20260509235009 | 56 | 5 | 0.0 | 1.7 | 0.02 | 0.16 | 0.16 | 71 | 1010.5 |
| 20260509234551 | 56 | 5 | 0.0 | 1.7 | 0.02 | 0.16 | 0.16 | 71 | 1010.6 |
| 20260509234053 | 56 | 5 | 0.0 | 1.7 | 0.02 | 0.16 | 0.16 | 70 | 1010.7 |
| 20260509233519 | 56 | 5 | 0.9 | 1.7 | 0.03 | 0.16 | 0.16 | 70 | 1010.7 |
| 20260509233059 | 56 | 81 | 0.9 | 2.6 | 0.05 | 0.16 | 0.16 | 70 | 1010.4 |
| 20260509232503 | 56 | 82 | 0.9 | 1.7 | 0.08 | 0.16 | 0.16 | 70 | 1010.7 |
| 20260509232005 | 56 | 300 | 0.0 | 2.6 | 0.08 | 0.16 | 0.16 | 70 | 1011.0 |
| 20260509231510 | 56 | 207 | 0.0 | 3.5 | 0.08 | 0.16 | 0.16 | 70 | 1011.1 |
| 20260509231051 | 56 | 96 | 1.7 | 3.5 | 0.08 | 0.16 | 0.16 | 69 | 1010.8 |
| 20260509230554 | 56 | 126 | 0.0 | 3.5 | 0.08 | 0.16 | 0.16 | 69 | 1011.0 |
| 20260509230109 | 56 | 126 | 0.0 | 3.5 | 0.07 | 0.15 | 0.15 | 69 | 1011.2 |
| 20260509225502 | 56 | 234 | 1.7 | 6.1 | 0.06 | 0.14 | 0.14 | 69 | 1011.3 |
| 20260509225007 | 56 | 82 | 1.7 | 6.1 | 0.06 | 0.14 | 0.14 | 69 | 1010.9 |
| 20260509224512 | 56 | 123 | 0.9 | 3.5 | 0.06 | 0.14 | 0.14 | 69 | 1011.0 |
| 20260509224054 | 56 | 98 | 1.7 | 3.5 | 0.06 | 0.14 | 0.14 | 69 | 1011.0 |
| 20260509223516 | 56 | 331 | 0.9 | 6.1 | 0.05 | 0.13 | 0.13 | 69 | 1011.3 |
| 20260509223105 | 56 | 33 | 2.6 | 6.1 | 0.02 | 0.10 | 0.10 | 69 | 1011.9 |
| 20260509222500 | 56 | 166 | 0.9 | 2.6 | 0.00 | 0.08 | 0.08 | 69 | 1012.0 |
| 20260509222019 | 56 | 166 | 1.7 | 2.6 | 0.00 | 0.08 | 0.08 | 68 | 1011.4 |
| 20260509221609 | 56 | 92 | 0.9 | 2.6 | 0.00 | 0.08 | 0.08 | 68 | 1011.2 |
| 20260509221100 | 56 | 88 | 0.9 | 2.6 | 0.00 | 0.08 | 0.08 | 68 | 1011.1 |
| 20260509220502 | 56 | 258 | 0.0 | 3.5 | 0.00 | 0.08 | 0.08 | 68 | 1011.5 |
| 20260509220007 | 56 | 255 | 0.9 | 3.5 | 0.00 | 0.08 | 0.08 | 68 | 1011.5 |
| 20260509215515 | 56 | 168 | 1.7 | 5.2 | 0.00 | 0.08 | 0.08 | 68 | 1011.3 |
| 20260509215058 | 56 | 116 | 0.9 | 5.2 | 0.00 | 0.08 | 0.08 | 68 | 1011.3 |
| 20260509214603 | 56 | 137 | 0.9 | 2.6 | 0.00 | 0.08 | 0.08 | 68 | 1011.3 |
| 20260509214020 | 56 | 173 | 0.0 | 4.3 | 0.00 | 0.08 | 0.08 | 68 | 1011.4 |
| 20260509213556 | 56 | 82 | 0.9 | 4.3 | 0.00 | 0.08 | 0.08 | 68 | 1011.4 |
| 20260509213002 | 56 | 82 | 0.9 | 2.6 | 0.00 | 0.08 | 0.08 | 68 | 1011.6 |
| 20260509212056 | 56 | 186 | 2.6 | 5.2 | 0.00 | 0.08 | 0.08 | 68 | 1011.7 |
| 20260509211520 | 56 | 137 | 0.9 | 7.0 | 0.00 | 0.08 | 0.08 | 68 | 1011.6 |
| 20260509211056 | 56 | 125 | 2.6 | 7.0 | 0.00 | 0.08 | 0.08 | 68 | 1011.6 |
| 20260509210558 | 56 | 222 | 0.9 | 7.0 | 0.00 | 0.08 | 0.08 | 68 | 1011.7 |
| 20260509210005 | 56 | 287 | 1.7 | 7.0 | 0.00 | 0.08 | 0.08 | 68 | 1011.7 |
| 20260509205505 | 56 | 224 | 3.5 | 6.1 | 0.00 | 0.08 | 0.08 | 68 | 1011.7 |
| 20260509205009 | 56 | 192 | 0.9 | 7.0 | 0.00 | 0.08 | 0.08 | 68 | 1011.7 |
| 20260509204551 | 56 | 163 | 1.7 | 7.0 | 0.00 | 0.08 | 0.08 | 68 | 1011.7 |
| 20260509203502 | 56 | 136 | 0.9 | 10.4 | 0.00 | 0.08 | 0.08 | 67 | 1011.5 |
| 20260509203022 | 56 | 232 | 4.3 | 9.6 | 0.00 | 0.08 | 0.08 | 67 | 1011.6 |
| 20260509202509 | 56 | 183 | 5.2 | 9.6 | 0.00 | 0.08 | 0.08 | 67 | 1011.7 |
| 20260509202054 | 56 | 191 | 2.6 | 9.6 | 0.00 | 0.08 | 0.08 | 67 | 1011.5 |
| 20260509201556 | 56 | 202 | 4.3 | 12.2 | 0.00 | 0.08 | 0.08 | 67 | 1011.4 |
| 20260509201001 | 57 | 87 | 2.6 | 7.8 | 0.01 | 0.08 | 0.08 | 68 | 1011.6 |
| 20260509200508 | 57 | 94 | 1.7 | 8.7 | 0.01 | 0.08 | 0.08 | 68 | 1011.8 |
| 20260509200008 | 57 | 241 | 3.5 | 8.7 | 0.01 | 0.08 | 0.08 | 67 | 1011.5 |
| 20260509195513 | 57 | 88 | 1.7 | 7.0 | 0.02 | 0.08 | 0.08 | 67 | 1011.7 |
| 20260509195055 | 57 | 164 | 1.7 | 6.1 | 0.02 | 0.08 | 0.08 | 67 | 1011.7 |
| 20260509194519 | 57 | 107 | 2.6 | 6.1 | 0.03 | 0.08 | 0.08 | 67 | 1011.9 |
| 20260509194057 | 57 | 107 | 1.7 | 7.0 | 0.04 | 0.08 | 0.08 | 67 | 1011.8 |
| 20260509193600 | 57 | 83 | 2.6 | 9.6 | 0.04 | 0.08 | 0.08 | 67 | 1011.8 |
| 20260509193002 | 57 | 136 | 2.6 | 7.0 | 0.04 | 0.08 | 0.08 | 66 | 1011.8 |
| 20260509192507 | 57 | 119 | 1.7 | 6.1 | 0.04 | 0.08 | 0.08 | 66 | 1011.6 |
| 20260509192010 | 57 | 87 | 0.9 | 6.1 | 0.05 | 0.08 | 0.08 | 66 | 1011.5 |
| 20260509191555 | 57 | 122 | 1.7 | 4.3 | 0.05 | 0.08 | 0.08 | 66 | 1011.7 |
| 20260509191057 | 57 | 163 | 0.9 | 6.1 | 0.05 | 0.07 | 0.07 | 66 | 1011.8 |
| 20260509190517 | 57 | 183 | 0.9 | 4.3 | 0.06 | 0.07 | 0.07 | 65 | 1011.9 |
| 20260509190055 | 57 | 142 | 0.9 | 7.8 | 0.06 | 0.07 | 0.07 | 65 | 1012.0 |
| 20260509185557 | 57 | 211 | 2.6 | 7.8 | 0.05 | 0.06 | 0.06 | 64 | 1012.0 |
| 20260509185001 | 57 | 118 | 0.9 | 7.8 | 0.04 | 0.05 | 0.05 | 64 | 1012.0 |
| 20260509184510 | 57 | 171 | 3.5 | 7.8 | 0.05 | 0.05 | 0.05 | 64 | 1012.0 |
| 20260509184051 | 57 | 76 | 1.7 | 7.0 | 0.04 | 0.04 | 0.04 | 64 | 1011.8 |
| 20260509183556 | 57 | 101 | 1.7 | 7.0 | 0.04 | 0.04 | 0.04 | 63 | 1011.8 |
| 20260509183017 | 57 | 102 | 2.6 | 6.1 | 0.04 | 0.04 | 0.04 | 63 | 1011.7 |
| 20260509182553 | 57 | 207 | 1.7 | 5.2 | 0.04 | 0.04 | 0.04 | 63 | 1011.6 |
| 20260509182059 | 58 | 148 | 0.9 | 7.8 | 0.03 | 0.03 | 0.03 | 62 | 1011.5 |
| 20260509181501 | 58 | 137 | 3.5 | 9.6 | 0.03 | 0.03 | 0.03 | 62 | 1011.7 |
| 20260509181004 | 58 | 194 | 0.9 | 7.0 | 0.02 | 0.02 | 0.02 | 61 | 1011.9 |
| 20260509180514 | 58 | 121 | 3.5 | 7.0 | 0.01 | 0.01 | 0.01 | 61 | 1011.7 |
| 20260509180051 | 59 | 107 | 2.6 | 7.0 | 0.01 | 0.01 | 0.01 | 60 | 1011.8 |
| 20260509175558 | 59 | 95 | 1.7 | 7.0 | 0.01 | 0.01 | 0.01 | 60 | 1011.8 |
| 20260509175004 | 59 | 92 | 1.7 | 6.1 | 0.01 | 0.01 | 0.01 | 59 | 1011.5 |
| 20260509174518 | 59 | 163 | 2.6 | 10.4 | 0.00 | 0.00 | 0.00 | 58 | 1011.5 |
| 20260509174012 | 60 | 90 | 3.5 | 10.4 | 0.00 | 0.00 | 0.00 | 57 | 1011.8 |
| 20260509173553 | 60 | 49 | 2.6 | 7.0 | 0.00 | 0.00 | 0.00 | 56 | 1011.8 |
| 20260509173101 | 61 | 113 | 1.7 | 6.1 | 0.00 | 0.00 | 0.00 | 55 | 1011.7 |
| 20260509172521 | 61 | 118 | 1.7 | 7.0 | 0.00 | 0.00 | 0.00 | 54 | 1011.3 |
| 20260509172053 | 62 | 125 | 1.7 | 7.0 | 0.00 | 0.00 | 0.00 | 53 | 1011.5 |
| 20260509171559 | 62 | 245 | 0.9 | 7.0 | 0.00 | 0.00 | 0.00 | 52 | 1011.5 |
| 20260509171019 | 62 | 154 | 1.7 | 7.0 | 0.00 | 0.00 | 0.00 | 52 | 1011.6 |
| 20260509170555 | 63 | 126 | 0.9 | 7.0 | 0.00 | 0.00 | 0.00 | 52 | 1011.3 |
| 20260509170100 | 63 | 207 | 3.5 | 7.0 | 0.00 | 0.00 | 0.00 | 51 | 1011.4 |
| 20260509165505 | 63 | 173 | 0.9 | 7.8 | 0.00 | 0.00 | 0.00 | 51 | 1011.4 |
| 20260509165010 | 63 | 250 | 1.7 | 7.8 | 0.00 | 0.00 | 0.00 | 51 | 1011.5 |
| 20260509164556 | 63 | 128 | 1.7 | 7.8 | 0.00 | 0.00 | 0.00 | 51 | 1011.4 |
| 20260509164056 | 63 | 168 | 2.6 | 7.0 | 0.00 | 0.00 | 0.00 | 52 | 1011.5 |
| 20260509163600 | 62 | 150 | 2.6 | 7.0 | 0.00 | 0.00 | 0.00 | 52 | 1011.5 |
| 20260509163006 | 62 | 235 | 2.6 | 6.1 | 0.00 | 0.00 | 0.00 | 51 | 1011.8 |
| 20260509162511 | 63 | 121 | 0.9 | 5.2 | 0.00 | 0.00 | 0.00 | 51 | 1011.9 |
| 20260509162012 | 63 | 231 | 2.6 | 7.0 | 0.00 | 0.00 | 0.00 | 51 | 1012.1 |
| 20260509161557 | 63 | 118 | 2.6 | 7.0 | 0.00 | 0.00 | 0.00 | 50 | 1012.2 |
| 20260509161056 | 63 | 90 | 1.7 | 7.8 | 0.00 | 0.00 | 0.00 | 50 | 1012.3 |
| 20260509160502 | 63 | 211 | 4.3 | 7.8 | 0.00 | 0.00 | 0.00 | 49 | 1012.3 |
| 20260509160005 | 63 | 150 | 3.5 | 5.2 | 0.00 | 0.00 | 0.00 | 50 | 1012.4 |
| 20260509155551 | 63 | 17 | 1.7 | 7.8 | 0.00 | 0.00 | 0.00 | 49 | 1012.5 |
| 20260509155054 | 63 | 107 | 4.3 | 7.8 | 0.00 | 0.00 | 0.00 | 49 | 1012.4 |
| 20260509154603 | 63 | 219 | 2.6 | 8.7 | 0.00 | 0.00 | 0.00 | 49 | 1012.5 |
| 20260509154002 | 63 | 114 | 5.2 | 8.7 | 0.00 | 0.00 | 0.00 | 48 | 1012.5 |
| 20260509153505 | 63 | 128 | 0.9 | 7.8 | 0.00 | 0.00 | 0.00 | 48 | 1012.4 |
| 20260509153010 | 62 | 115 | 2.6 | 8.7 | 0.00 | 0.00 | 0.00 | 49 | 1012.5 |
| 20260509152551 | 62 | 103 | 2.6 | 8.7 | 0.00 | 0.00 | 0.00 | 49 | 1012.4 |
| 20260509152057 | 63 | 105 | 4.3 | 9.6 | 0.00 | 0.00 | 0.00 | 49 | 1012.5 |
| 20260509151600 | 63 | 130 | 6.1 | 9.6 | 0.00 | 0.00 | 0.00 | 47 | 1012.5 |
| 20260509151008 | 63 | 94 | 4.3 | 7.8 | 0.00 | 0.00 | 0.00 | 47 | 1012.4 |
| 20260509150509 | 63 | 123 | 1.7 | 7.0 | 0.00 | 0.00 | 0.00 | 47 | 1012.4 |
| 20260509150057 | 63 | 232 | 1.7 | 8.7 | 0.00 | 0.00 | 0.00 | 48 | 1012.4 |
| 20260509145558 | 63 | 138 | 3.5 | 8.7 | 0.00 | 0.00 | 0.00 | 47 | 1012.4 |
| 20260509145059 | 62 | 96 | 1.7 | 8.7 | 0.00 | 0.00 | 0.00 | 48 | 1012.4 |
| 20260509144504 | 62 | 217 | 1.7 | 8.7 | 0.00 | 0.00 | 0.00 | 48 | 1012.6 |
| 20260509144008 | 62 | 240 | 4.3 | 8.7 | 0.00 | 0.00 | 0.00 | 48 | 1012.6 |
| 20260509143511 | 62 | 242 | 4.3 | 7.8 | 0.00 | 0.00 | 0.00 | 47 | 1012.5 |
| 20260509143100 | 62 | 103 | 1.7 | 8.7 | 0.00 | 0.00 | 0.00 | 49 | 1012.5 |
| 20260509142558 | 62 | 187 | 1.7 | 8.7 | 0.00 | 0.00 | 0.00 | 47 | 1012.5 |
| 20260509142001 | 62 | 182 | 1.7 | 8.7 | 0.00 | 0.00 | 0.00 | 50 | 1012.4 |
| 20260509141504 | 61 | 225 | 2.6 | 8.7 | 0.00 | 0.00 | 0.00 | 50 | 1012.3 |
| 20260509141005 | 61 | 202 | 3.5 | 8.7 | 0.00 | 0.00 | 0.00 | 49 | 1012.5 |
| 20260509140558 | 61 | 227 | 3.5 | 8.7 | 0.00 | 0.00 | 0.00 | 49 | 1012.4 |
| 20260509140105 | 60 | 213 | 3.5 | 6.1 | 0.00 | 0.00 | 0.00 | 50 | 1012.7 |
| 20260509135559 | 60 | 176 | 0.9 | 8.7 | 0.00 | 0.00 | 0.00 | 51 | 1012.7 |
| 20260509135004 | 60 | 148 | 3.5 | 8.7 | 0.00 | 0.00 | 0.00 | 50 | 1012.6 |
| 20260509134508 | 60 | 183 | 3.5 | 7.0 | 0.00 | 0.00 | 0.00 | 51 | 1012.5 |
| 20260509134009 | 60 | 149 | 1.7 | 7.0 | 0.00 | 0.00 | 0.00 | 52 | 1012.5 |
| 20260509133557 | 59 | 139 | 2.6 | 7.0 | 0.00 | 0.00 | 0.00 | 52 | 1012.6 |
| 20260509133017 | 59 | 188 | 1.7 | 7.8 | 0.00 | 0.00 | 0.00 | 54 | 1012.7 |
| 20260509132554 | 59 | 182 | 2.6 | 7.8 | 0.00 | 0.00 | 0.00 | 54 | 1012.5 |
| 20260509132058 | 58 | 130 | 1.7 | 7.0 | 0.00 | 0.00 | 0.00 | 58 | 1012.7 |
| 20260509131501 | 56 | 104 | 1.7 | 6.1 | 0.00 | 0.00 | 0.00 | 62 | 1012.9 |
| 20260509131010 | 55 | 213 | 0.9 | 4.3 | 0.00 | 0.00 | 0.00 | 63 | 1012.8 |
| 20260509130552 | 55 | 92 | 0.9 | 4.3 | 0.00 | 0.00 | 0.00 | 64 | 1012.8 |
| 20260509130057 | 55 | 194 | 0.9 | 4.3 | 0.00 | 0.00 | 0.00 | 64 | 1012.9 |
| 20260509125501 | 54 | 42 | 0.9 | 5.2 | 0.00 | 0.00 | 0.00 | 65 | 1012.9 |
| 20260509125003 | 54 | 266 | 1.7 | 6.1 | 0.00 | 0.00 | 0.00 | 66 | 1013.1 |
| 20260509124506 | 54 | 244 | 1.7 | 6.1 | 0.00 | 0.00 | 0.00 | 66 | 1013.2 |
| 20260509124008 | 54 | 90 | 0.9 | 3.5 | 0.00 | 0.00 | 0.00 | 67 | 1012.9 |
| 20260509123552 | 53 | 102 | 1.7 | 3.5 | 0.00 | 0.00 | 0.00 | 67 | 1012.9 |
| 20260509123119 | 53 | 106 | 0.9 | 2.6 | 0.00 | 0.00 | 0.00 | 67 | 1012.9 |
| 20260509122600 | 53 | 113 | 0.0 | 2.6 | 0.00 | 0.00 | 0.00 | 67 | 1013.1 |
| 20260509122002 | 52 | 154 | 0.0 | 1.7 | 0.00 | 0.00 | 0.00 | 67 | 1013.1 |
| 20260509121514 | 52 | 154 | 0.0 | 7.0 | 0.00 | 0.00 | 0.00 | 67 | 1013.2 |
| 20260509121053 | 52 | 138 | 0.0 | 7.0 | 0.00 | 0.00 | 0.00 | 67 | 1013.2 |
| 20260509120557 | 52 | 121 | 0.0 | 2.6 | 0.00 | 0.00 | 0.00 | 67 | 1013.3 |
| 20260509120001 | 52 | 159 | 0.0 | 2.6 | 0.00 | 0.00 | 0.00 | 67 | 1013.4 |
| 20260509115502 | 52 | 113 | 0.9 | 2.6 | 0.00 | 0.00 | 0.00 | 67 | 1013.3 |
| 20260509115010 | 52 | 138 | 0.9 | 3.5 | 0.00 | 0.00 | 0.00 | 67 | 1013.2 |
| 20260509114551 | 52 | 98 | 0.9 | 3.5 | 0.00 | 0.00 | 0.00 | 67 | 1013.2 |
| 20260509114057 | 51 | 139 | 0.0 | 2.6 | 0.00 | 0.00 | 0.00 | 67 | 1013.2 |
| 20260509113519 | 51 | 101 | 0.0 | 1.7 | 0.00 | 0.00 | 0.00 | 67 | 1013.3 |
| 20260509113055 | 51 | 101 | 0.0 | 0.0 | 0.00 | 0.00 | 0.00 | 67 | 1013.3 |
| 20260509112557 | 51 | 101 | 0.0 | 0.0 | 0.00 | 0.00 | 0.00 | 67 | 1013.2 |
| 20260509112006 | 51 | 101 | 0.0 | 0.0 | 0.00 | 0.00 | 0.00 | 67 | 1013.4 |
| 20260509111509 | 51 | 101 | 0.0 | 0.0 | 0.00 | 0.00 | 0.00 | 67 | 1013.1 |
| 20260509111051 | 51 | 101 | 0.0 | 0.0 | 0.00 | 0.00 | 0.00 | 67 | 1013.0 |
| 20260509110556 | 51 | 101 | 0.0 | 0.0 | 0.00 | 0.00 | 0.00 | 67 | 1013.1 |
| 20260509110058 | 51 | 101 | 0.0 | 0.0 | 0.00 | 0.00 | 0.00 | 67 | 1013.1 |
| 20260509105503 | 51 | 101 | 0.0 | 0.0 | 0.00 | 0.00 | 0.00 | 67 | 1013.1 |
| 20260509105007 | 51 | 101 | 0.0 | 0.9 | 0.00 | 0.00 | 0.00 | 67 | 1013.0 |
| 20260509104510 | 51 | 101 | 0.0 | 1.7 | 0.00 | 0.00 | 0.00 | 67 | 1013.1 |
| 20260509104053 | 51 | 101 | 0.0 | 1.7 | 0.00 | 0.00 | 0.00 | 66 | 1012.9 |
| 20260509103556 | 51 | 101 | 0.0 | 1.7 | 0.00 | 0.00 | 0.00 | 66 | 1012.9 |
| 20260509103104 | 51 | 101 | 0.0 | 1.7 | 0.00 | 0.00 | 0.00 | 66 | 1012.9 |
| 20260509102507 | 51 | 94 | 0.0 | 0.9 | 0.00 | 0.00 | 0.00 | 66 | 1012.9 |
| 20260509102010 | 51 | 94 | 0.0 | 1.7 | 0.00 | 0.00 | 0.00 | 66 | 1012.7 |
| 20260509101557 | 51 | 94 | 0.0 | 1.7 | 0.00 | 0.00 | 0.00 | 66 | 1012.7 |
| 20260509101058 | 51 | 94 | 0.0 | 1.7 | 0.00 | 0.00 | 0.00 | 66 | 1012.7 |
| 20260509100559 | 51 | 94 | 0.0 | 1.7 | 0.00 | 0.00 | 0.00 | 66 | 1012.8 |
| 20260509100007 | 51 | 94 | 0.0 | 0.9 | 0.00 | 0.00 | 0.00 | 66 | 1012.7 |
| 20260509095508 | 51 | 94 | 0.0 | 2.6 | 0.00 | 0.00 | 0.00 | 66 | 1012.6 |
| 20260509095011 | 51 | 94 | 0.0 | 2.6 | 0.00 | 0.00 | 0.00 | 66 | 1012.5 |
| 20260509094554 | 51 | 94 | 0.9 | 3.5 | 0.00 | 0.00 | 0.00 | 66 | 1012.5 |
| 20260509094057 | 51 | 94 | 0.9 | 3.5 | 0.00 | 0.00 | 0.00 | 66 | 1012.4 |
| 20260509093520 | 51 | 114 | 0.0 | 2.6 | 0.00 | 0.00 | 0.00 | 66 | 1012.6 |
| 20260509093100 | 51 | 114 | 0.0 | 3.5 | 0.00 | 0.00 | 0.00 | 66 | 1012.6 |
| 20260509092501 | 51 | 114 | 0.9 | 3.5 | 0.00 | 0.00 | 0.00 | 66 | 1012.7 |
| 20260509092012 | 51 | 107 | 0.9 | 2.6 | 0.00 | 0.00 | 0.00 | 66 | 1012.5 |
| 20260509091509 | 51 | 82 | 0.0 | 2.6 | 0.00 | 0.00 | 0.00 | 66 | 1012.7 |
| 20260509091056 | 51 | 82 | 0.0 | 2.6 | 0.00 | 0.00 | 0.00 | 66 | 1012.6 |
| 20260509090557 | 51 | 89 | 0.9 | 2.6 | 0.00 | 0.00 | 0.00 | 66 | 1012.7 |
| 20260509090101 | 51 | 81 | 0.0 | 2.6 | 0.00 | 0.00 | 0.00 | 66 | 1012.7 |
| 20260509085503 | 51 | 81 | 0.9 | 1.7 | 0.00 | 0.00 | 0.00 | 66 | 1012.6 |
| 20260509085006 | 51 | 81 | 0.0 | 0.9 | 0.00 | 0.00 | 0.00 | 66 | 1012.5 |
| 20260509084508 | 51 | 81 | 0.0 | 0.0 | 0.00 | 0.00 | 0.00 | 66 | 1012.5 |
| 20260509084055 | 51 | 81 | 0.0 | 2.6 | 0.00 | 0.00 | 0.00 | 66 | 1012.6 |
| 20260509083518 | 51 | 81 | 0.0 | 2.6 | 0.00 | 0.00 | 0.00 | 66 | 1012.7 |
| 20260509083101 | 51 | 94 | 0.0 | 1.7 | 0.00 | 0.00 | 0.00 | 66 | 1012.8 |
| 20260509082516 | 50 | 94 | 0.9 | 5.2 | 0.00 | 0.00 | 0.00 | 66 | 1012.9 |
| 20260509082053 | 50 | 94 | 0.9 | 5.2 | 0.00 | 0.00 | 0.00 | 66 | 1012.9 |
| 20260509081558 | 50 | 79 | 0.9 | 3.5 | 0.00 | 0.00 | 0.00 | 66 | 1013.0 |
| 20260509081003 | 50 | 138 | 0.9 | 3.5 | 0.00 | 0.00 | 0.00 | 66 | 1013.1 |
| 20260509080503 | 50 | 142 | 0.9 | 5.2 | 0.00 | 0.00 | 0.00 | 66 | 1013.0 |
| 20260509080007 | 50 | 90 | 0.9 | 5.2 | 0.00 | 0.00 | 0.00 | 66 | 1013.0 |